User: anonymous   Login
Location: ???????????
(38.2661°N, 23.2350°E)
Time: 22:42:32
(UTC+00:00)
Language:

CZ-4C R/B - Orbit

View from above orbital plane
View from above orbital plane
View from above satellite
View from above satellite

Ground track
Ground track

The orbit data is extracted from the following two-line orbital elements,

1 39211U 13037D   24055.57921549  .00007236  00000-0  34163-3 0  9996
2 39211  98.0518 269.2798 0102674 332.3299  27.2489 15.15153485582200
Epoch (UTC): 24 February 2024 13:54:04
Eccentricity: 0.0102674
inclination: 98.0518°
perigee height: 449 km
apogee height: 591 km
right ascension of ascending node: 269.2798°
argument of perigee: 332.3299°
revolutions per day: 15.15153485
mean anomaly at epoch: 27.2489°
orbit number at epoch: 58220

The dashed part of the orbit path shows where the satellite is in the earth's shadow,  

DLR